Terminal Aerodrome Forecast
Issued by NWS Memphis, TN

Home | Current Version | Previous Version | Text Only | Print | Product List | Glossary On
Versions: 1 2 3 4 5 6 7 8 9 10 11 12 13 14 15 16
377
FTUS44 KMEG 220901 AAA
TAFJBR
TAF AMD
KJBR 220901Z 2209/2306 18013G20KT P6SM VCSH OVC020
     FM221100 20010G16KT 6SM -SHRA BR VCTS BKN015CB OVC025
      TEMPO 2212/2215 27012G18KT -RA OVC012
     FM221700 29009KT P6SM VCSH SCT025 BKN100
     FM222300 34007KT P6SM BKN020
     FM230300 36005KT P6SM FEW020 BKN120=

USA.gov is the U.S. government's official web portal to all federal, state and local government web resources and services.